Regional Weather Roundup
Issued by NWS Glasgow, MT

Home | Current Version | Previous Version | Text Only | Print | Product List | Glossary On
Versions: 1 2 3 4 5 6 7 8 9 10 11 12 13 14 15 16 17 18 19 20 21 22 23 24 25 26 27
000
ASUS45 KGGW 110615
RWRGGW
HOURLY REGIONAL WEATHER ROUNDUP FOR NORTHEAST MONTANA
NATIONAL WEATHER SERVICE GLASGOW MONTANA
1100 PM MST SUN DEC 10 2017

NOTE: "FAIR" INDICATES FEW OR NO CLOUDS BELOW 12,000 FEET WITH NO
SIGNIFICANT WEATHER AND/OR OBSTRUCTIONS TO VISISBILITY.

NORTHEAST MONTANA


CITY           SKY/WX    TMP DP  RH WIND       PRES   REMARKS
GLASGOW        PTCLDY    42  23  46 NW23G31   30.18R
6HR MIN TEMP:  30; 6HR MAX TEMP:  43;

PLENTYWOOD       N/A     41  30  65 NW28G49     N/A
WOLF POINT     CLOUDY    44  25  47 NW25G38   30.13R
JORDAN           N/A     45  19  35 NW20G30   30.25R
WINNETT          N/A     47  16  29 NW14G23     N/A
SIDNEY         CLEAR     41  25  53 NW29      30.06R
GLENDIVE       CLOUDY    42  21  43 NW23G35   30.12R
MALTA            N/A     40  21  46 W10G18      N/A
SCOBEY           N/A     40  24  53 NW37G47   30.04R

FORT PECK REPORTS


CITY           SKY/WX    TMP DP  RH WIND       PRES   REMARKS
FORT PECK        N/A     42  23  46 NW26G35     N/A
THE PINES        N/A     45  21  38 NW13G21     N/A

SOUTHEAST MONTANA


CITY           SKY/WX    TMP DP  RH WIND       PRES   REMARKS
BILLINGS       CLOUDY    38  16  40 SW14      30.32R
MILES CITY     CLOUDY    45  19  35 NW17      30.22R
BAKER          CLOUDY    39  21  48 W17       30.13R
LIVINGSTON     CLOUDY    44  12  27 W18       30.42R

CENTRAL MONTANA


CITY           SKY/WX    TMP DP  RH WIND       PRES   REMARKS
HAVRE          CLOUDY    36  19  50 SW10      30.38R
LEWISTOWN      CLOUDY    38  19  46 SW5       30.37R
GREAT FALLS    CLOUDY    35  13  40 SW13      30.40R
CUT BANK       CLEAR     32  15  49 W6        30.38R
HELENA         CLOUDY    19  15  84 SE3       30.51R
BUTTE          CLOUDY    11   5  77 CALM      30.53R
BOZEMAN        CLOUDY    15   9  76 S5        30.52R

WESTERN MONTANA


CITY           SKY/WX    TMP DP  RH WIND       PRES   REMARKS
MISSOULA       CLOUDY    17  15  92 SE5       30.63S
KALISPELL      NOT AVBL

NORTH DAKOTA


CITY           SKY/WX    TMP DP  RH WIND       PRES   REMARKS
WILLISTON      MOCLDY    42  28  57 NW25G37   29.98R
DICKINSON      CLEAR     36  20  52 W21       29.97F
MINOT          CLOUDY    40  33  76 W29G38    29.80S
BISMARCK       CLOUDY    45  22  40 W21       29.91F

SOUTHERN SASKATCHEWAN


CITY           SKY/WX    TMP DP  RH WIND       PRES   REMARKS
REGINA         CLOUDY    36  32  87 NW28G39   29.97R
ESTEVAN        MOCLDY    37  32  81 NW30G37   29.88R
SWIFT CURRENT  CLOUDY    37  27  65 NW26G37   30.17R





USA.gov is the U.S. government's official web portal to all federal, state and local government web resources and services.